DW1520 Weather Reports


time (UTC)temp
C
wind
direction
speed
KPH
gust
KPH
rain 1hr
cm
rain 24hr
cm
rain mn
cm
humidity
%
barometer
mb
20260509075505 9 311 0.0 0.0 0.00 0.00 0.00 53 1000.1
20260509075005 9 311 0.0 0.0 0.00 0.00 0.00 53 1000.1
20260509074507 9 311 0.0 0.0 0.00 0.00 0.00 55 1000.1
20260509073506 10 311 0.0 0.0 0.00 0.00 0.00 50 1000.2
20260509073006 10 311 0.0 0.0 0.00 0.00 0.00 50 1000.3
20260509072006 10 311 0.0 0.0 0.00 0.00 0.00 48 1000.4
20260509071506 11 311 0.0 0.0 0.00 0.00 0.00 47 1000.4
20260509071006 11 311 0.0 0.0 0.00 0.00 0.00 46 1000.5
20260509070005 11 311 0.0 0.0 0.00 0.00 0.00 45 1000.6
20260509065506 11 311 0.0 0.0 0.00 0.00 0.00 45 1000.7
20260509065006 11 311 0.0 0.0 0.00 0.00 0.00 45 1000.8
20260509064505 12 311 0.0 0.0 0.00 0.00 0.00 44 1000.7
20260509064006 12 311 0.0 0.0 0.00 0.00 0.00 43 1000.9
20260509062506 12 311 0.0 1.6 0.00 0.00 0.00 41 1000.9
20260509062006 12 311 0.0 0.0 0.00 0.00 0.00 42 1000.8
20260509061505 13 311 0.0 1.6 0.00 0.00 0.00 41 1000.8
20260509060506 13 311 1.6 4.8 0.00 0.00 0.00 40 1001.1
20260509060006 13 311 1.6 3.2 0.00 0.00 0.00 40 1001.1
20260509055505 13 311 1.6 4.8 0.00 0.00 0.00 40 1001.0
20260509055006 13 311 3.2 4.8 0.00 0.00 0.00 40 1001.0
20260509054006 13 292 3.2 4.8 0.00 0.00 0.00 39 1001.0
20260509053505 13 287 3.2 4.8 0.00 0.00 0.00 39 1001.0
20260509053005 14 306 3.2 4.8 0.00 0.00 0.00 39 1001.0
20260509052505 14 317 4.8 12.9 0.00 0.00 0.00 38 1001.0
20260509052006 14 278 4.8 16.1 0.00 0.00 0.00 39 1001.0
20260509051505 14 307 3.2 11.3 0.00 0.00 0.00 39 1001.0
20260509050506 13 289 3.2 11.3 0.00 0.00 0.00 40 1001.0
20260509050006 13 313 1.6 12.9 0.00 0.00 0.00 40 1000.9
20260509045506 13 309 1.6 12.9 0.00 0.00 0.00 40 1001.0
20260509045006 14 311 1.6 4.8 0.00 0.00 0.00 41 1001.0
20260509044506 14 294 1.6 4.8 0.00 0.00 0.00 40 1001.0
20260509044006 14 294 1.6 8.0 0.00 0.00 0.00 39 1001.1
20260509043506 14 281 3.2 8.0 0.00 0.00 0.00 39 1001.0
20260509043018 14 254 3.2 4.8 0.00 0.00 0.00 39 1000.9
20260509042505 15 288 1.6 3.2 0.00 0.00 0.00 38 1000.9
20260509042006 15 288 0.0 3.2 0.00 0.00 0.00 38 1000.8
20260509041505 15 290 1.6 4.8 0.00 0.00 0.00 38 1000.9
20260509041006 15 284 3.2 4.8 0.00 0.00 0.00 37 1000.9
20260509040506 15 281 1.6 3.2 0.00 0.00 0.00 37 1000.9
20260509040005 15 281 1.6 4.8 0.00 0.00 0.00 37 1000.9
20260509035505 15 281 1.6 3.2 0.00 0.00 0.00 37 1000.9
20260509035006 15 281 1.6 9.7 0.00 0.00 0.00 37 1000.9
20260509034006 15 270 1.6 9.7 0.00 0.00 0.00 39 1000.8
20260509033505 14 267 1.6 4.8 0.00 0.00 0.00 39 1000.8
20260509033006 14 245 0.0 3.2 0.00 0.00 0.00 41 1000.8
20260509032505 15 310 0.0 0.0 0.00 0.00 0.00 39 1000.7
20260509032005 15 310 0.0 0.0 0.00 0.00 0.00 39 1000.7
20260509031505 15 310 0.0 0.0 0.00 0.00 0.00 39 1000.6
20260509031006 15 310 0.0 0.0 0.00 0.00 0.00 37 1000.5
20260509030505 16 310 0.0 0.0 0.00 0.00 0.00 37 1000.4
20260509030006 16 310 0.0 0.0 0.00 0.00 0.00 37 1000.4
20260509025506 16 310 0.0 0.0 0.00 0.00 0.00 36 1000.4
20260509025006 16 310 0.0 1.6 0.00 0.00 0.00 37 1000.3
20260509024005 16 311 1.6 3.2 0.00 0.00 0.00 35 1000.2
20260509023506 16 310 0.0 3.2 0.00 0.00 0.00 35 1000.2
20260509023006 16 310 1.6 4.8 0.00 0.00 0.00 35 1000.1
20260509022006 16 310 0.0 1.6 0.00 0.00 0.00 35 1000.1
20260509021505 17 311 0.0 1.6 0.00 0.00 0.00 35 1000.0
20260509021006 17 310 0.0 1.6 0.00 0.00 0.00 34 1000.0
20260509020506 17 310 0.0 1.6 0.00 0.00 0.00 33 999.9
20260509015006 18 310 1.6 3.2 0.00 0.00 0.00 32 999.8
20260509014506 18 311 0.0 3.2 0.00 0.00 0.00 32 999.8
20260509014006 18 311 1.6 3.2 0.00 0.00 0.00 31 999.8
20260509013005 18 310 0.0 4.8 0.00 0.00 0.00 31 999.8
20260509012506 18 311 3.2 8.0 0.00 0.00 0.00 31 999.6
20260509012006 19 289 1.6 8.0 0.00 0.00 0.00 31 999.6
20260509011506 19 273 1.6 4.8 0.00 0.00 0.00 31 999.6
20260509011005 19 296 1.6 8.0 0.00 0.00 0.00 31 999.6
20260509010506 19 298 3.2 4.8 0.00 0.00 0.00 31 999.6
20260509010005 19 334 3.2 4.8 0.00 0.00 0.00 32 999.6
20260509005505 20 231 3.2 12.9 0.00 0.00 0.00 31 999.6
20260509005005 20 256 1.6 3.2 0.00 0.00 0.00 32 999.6
20260509004506 20 258 3.2 4.8 0.00 0.00 0.00 32 999.5
20260509004006 20 292 1.6 4.8 0.00 0.00 0.00 32 999.4
20260509003506 20 275 1.6 4.8 0.00 0.00 0.00 32 999.4
20260509003007 20 221 3.2 4.8 0.00 0.00 0.00 31 999.5
20260509002506 20 213 3.2 9.7 0.00 0.00 0.00 30 999.5
20260509002006 20 290 3.2 8.0 0.00 0.00 0.00 31 999.6
20260509001005 20 229 3.2 11.3 0.00 0.00 0.00 31 999.6
20260509000506 20 223 3.2 11.3 0.00 0.00 0.00 30 999.7
20260508235505 20 222 3.2 9.7 0.00 0.00 0.00 30 999.8
20260508235006 20 300 1.6 4.8 0.00 0.00 0.00 31 999.8
20260508234006 21 282 3.2 11.3 0.00 0.00 0.00 29 999.7
20260508233506 21 233 4.8 11.3 0.00 0.00 0.00 29 999.8
20260508233006 21 212 4.8 22.5 0.00 0.00 0.00 29 999.8
20260508232505 20 286 4.8 22.5 0.00 0.00 0.00 29 999.9
20260508232005 21 212 4.8 11.3 0.00 0.00 0.00 29 999.9
20260508231506 21 308 4.8 14.5 0.00 0.00 0.00 29 999.9
20260508231006 21 326 4.8 19.3 0.00 0.00 0.00 29 999.9
20260508230505 21 245 4.8 19.3 0.00 0.00 0.00 29 1000.0
20260508230006 21 283 3.2 9.7 0.00 0.00 0.00 29 1000.0
20260508225506 21 238 3.2 8.0 0.00 0.00 0.00 27 1000.1
20260508224006 21 220 4.8 11.3 0.00 0.00 0.00 27 1000.1
20260508223506 21 191 4.8 8.0 0.00 0.00 0.00 26 1000.2
20260508223006 21 205 4.8 11.3 0.00 0.00 0.00 25 1000.1
20260508222006 21 189 6.4 11.3 0.00 0.00 0.00 26 1000.2
20260508221506 21 181 3.2 4.8 0.00 0.00 0.00 26 1000.4
20260508221006 21 177 4.8 11.3 0.00 0.00 0.00 26 1000.4
20260508220506 21 187 3.2 19.3 0.00 0.00 0.00 26 1000.4
20260508220005 21 284 3.2 4.8 0.00 0.00 0.00 25 1000.6
20260508215006 21 185 4.8 14.5 0.00 0.00 0.00 27 1000.7
20260508214505 20 171 8.0 19.3 0.00 0.00 0.00 27 1000.8
20260508214005 20 192 4.8 9.7 0.00 0.00 0.00 27 1000.9
20260508213505 20 215 4.8 11.3 0.00 0.00 0.00 25 1001.1
20260508213006 20 194 4.8 9.7 0.00 0.00 0.00 28 1001.1
20260508212506 20 215 3.2 4.8 0.00 0.00 0.00 26 1001.1
20260508212006 20 315 3.2 8.0 0.00 0.00 0.00 25 1001.2
20260508211505 20 248 3.2 4.8 0.00 0.00 0.00 24 1001.3
20260508211005 20 252 3.2 9.7 0.00 0.00 0.00 26 1001.3
20260508210506 20 244 3.2 12.9 0.00 0.00 0.00 27 1001.4
20260508210006 20 226 4.8 14.5 0.00 0.00 0.00 25 1001.5
20260508205505 20 183 3.2 4.8 0.00 0.00 0.00 26 1001.6
20260508204505 20 237 4.8 12.9 0.00 0.00 0.00 25 1001.8
20260508204006 21 265 3.2 8.0 0.00 0.00 0.00 24 1001.8
20260508203506 21 190 3.2 11.3 0.00 0.00 0.00 26 1001.8
20260508203006 21 297 4.8 11.3 0.00 0.00 0.00 27 1001.8
20260508202505 20 203 3.2 4.8 0.00 0.00 0.00 25 1001.9
20260508202006 20 237 4.8 12.9 0.00 0.00 0.00 25 1002.0
20260508201505 20 188 3.2 8.0 0.00 0.00 0.00 25 1002.0
20260508200505 20 205 3.2 4.8 0.00 0.00 0.00 26 1002.2
20260508200005 20 307 3.2 9.7 0.00 0.00 0.00 26 1002.3
20260508195005 20 342 3.2 9.7 0.00 0.00 0.00 27 1002.3
20260508194505 21 275 3.2 14.5 0.00 0.00 0.00 26 1002.5
20260508194005 21 267 3.2 14.5 0.00 0.00 0.00 26 1002.6
20260508193505 21 268 4.8 12.9 0.00 0.00 0.00 25 1002.7
20260508193005 21 272 3.2 12.9 0.00 0.00 0.00 24 1002.7
20260508192005 21 192 4.8 11.3 0.00 0.00 0.00 25 1002.8
20260508191506 21 169 4.8 11.3 0.00 0.00 0.00 23 1002.9
20260508191006 21 182 4.8 11.3 0.00 0.00 0.00 25 1003.1
20260508190505 21 191 6.4 11.3 0.00 0.00 0.00 26 1003.0
20260508190005 21 254 3.2 8.0 0.00 0.00 0.00 30 1003.1
20260508185505 21 273 4.8 14.5 0.00 0.00 0.00 26 1003.3
20260508185005 21 275 4.8 11.3 0.00 0.00 0.00 25 1003.3
20260508184006 21 236 3.2 11.3 0.00 0.00 0.00 25 1003.3
20260508183505 21 267 3.2 14.5 0.00 0.00 0.00 25 1003.4
20260508183006 21 236 4.8 14.5 0.00 0.00 0.00 25 1003.5
20260508182505 21 163 3.2 9.7 0.00 0.00 0.00 27 1003.5
20260508182006 21 173 1.6 8.0 0.00 0.00 0.00 27 1003.7
20260508181005 20 200 3.2 14.5 0.00 0.00 0.00 26 1003.9
20260508180506 20 252 4.8 9.7 0.00 0.00 0.00 27 1004.0
20260508174505 20 311 3.2 4.8 0.00 0.00 0.00 26 1004.4
20260508174005 20 197 3.2 9.7 0.00 0.00 0.00 27 1004.5
20260508173505 20 237 4.8 11.3 0.00 0.00 0.00 26 1004.6
20260508172506 19 172 4.8 9.7 0.00 0.00 0.00 30 1004.8
20260508172005 18 157 3.2 8.0 0.00 0.00 0.00 31 1004.9
20260508171505 18 214 4.8 8.0 0.00 0.00 0.00 28 1005.1
20260508170505 18 279 3.2 14.5 0.00 0.00 0.00 29 1005.3
20260508170005 18 270 3.2 4.8 0.00 0.00 0.00 29 1005.3
20260508165505 18 195 8.0 14.5 0.00 0.00 0.00 29 1005.3
20260508165005 18 207 4.8 11.3 0.00 0.00 0.00 29 1005.5
20260508164505 18 198 8.0 19.3 0.00 0.00 0.00 28 1005.3
20260508164006 18 172 8.0 14.5 0.00 0.00 0.00 28 1005.4
20260508163014 18 181 9.7 19.3 0.00 0.00 0.00 32 1005.6
20260508162505 17 183 8.0 19.3 0.00 0.00 0.00 30 1005.7
20260508162005 17 179 6.4 16.1 0.00 0.00 0.00 30 1005.7
20260508161005 17 209 3.2 4.8 0.00 0.00 0.00 30 1005.8
20260508160506 17 209 4.8 20.9 0.00 0.00 0.00 33 1005.9
20260508160005 17 179 11.3 20.9 0.00 0.00 0.00 31 1005.8
20260508155006 17 179 4.8 12.9 0.00 0.00 0.00 33 1006.0
20260508154505 17 205 4.8 12.9 0.00 0.00 0.00 33 1005.9
20260508154005 17 169 8.0 19.3 0.00 0.00 0.00 32 1006.0
20260508153505 16 180 6.4 19.3 0.00 0.00 0.00 34 1006.1
20260508153005 16 180 4.8 19.3 0.00 0.00 0.00 32 1006.2
20260508152006 16 177 4.8 12.9 0.00 0.00 0.00 34 1006.3
20260508151506 16 181 8.0 14.5 0.00 0.00 0.00 35 1006.4
20260508151005 16 171 8.0 14.5 0.00 0.00 0.00 34 1006.5
20260508150506 16 182 8.0 19.3 0.00 0.00 0.00 34 1006.6
20260508150006 16 168 9.7 19.3 0.00 0.00 0.00 32 1006.7
20260508145005 15 212 8.0 16.1 0.00 0.00 0.00 35 1006.8
20260508144005 15 181 8.0 19.3 0.00 0.00 0.00 36 1006.9
20260508143506 14 173 9.7 20.9 0.00 0.00 0.00 35 1006.9
20260508143006 14 181 8.0 16.1 0.00 0.00 0.00 36 1006.9
20260508142505 13 177 9.7 19.3 0.00 0.00 0.00 36 1007.0
20260508142005 13 184 8.0 19.3 0.00 0.00 0.00 39 1007.0
20260508141505 13 178 8.0 19.3 0.00 0.00 0.00 39 1007.1
20260508141005 13 183 6.4 19.3 0.00 0.00 0.00 39 1007.1
20260508140505 12 177 8.0 16.1 0.00 0.00 0.00 39 1007.1
20260508140005 12 185 8.0 16.1 0.00 0.00 0.00 40 1007.1
20260508135505 12 176 8.0 19.3 0.00 0.00 0.00 40 1007.2
20260508135005 12 165 9.7 19.3 0.00 0.00 0.00 40 1007.2
20260508134505 11 186 8.0 16.1 0.00 0.00 0.00 42 1007.2
20260508134005 11 172 8.0 16.1 0.00 0.00 0.00 43 1007.2
20260508133505 11 185 4.8 14.5 0.00 0.00 0.00 45 1007.2
20260508133005 11 175 8.0 12.9 0.00 0.00 0.00 45 1007.3
20260508132505 10 180 6.4 12.9 0.00 0.00 0.00 47 1007.4
20260508132005 10 168 4.8 12.9 0.00 0.00 0.00 47 1007.3
20260508131505 10 183 6.4 14.5 0.00 0.00 0.00 48 1007.4
20260508131006 9 170 4.8 11.3 0.00 0.00 0.00 49 1007.4
20260508130505 8 172 4.8 11.3 0.00 0.00 0.00 51 1007.5
20260508130005 8 176 4.8 9.7 0.00 0.00 0.00 52 1007.5
20260508125514 8 147 3.2 8.0 0.00 0.00 0.00 54 1007.5
20260508125006 7 152 3.2 4.8 0.00 0.00 0.00 54 1007.5
20260508124505 7 165 3.2 4.8 0.00 0.00 0.00 54 1007.5
20260508124005 7 165 1.6 4.8 0.00 0.00 0.00 55 1007.5
20260508123505 6 165 1.6 4.8 0.00 0.00 0.00 55 1007.5
20260508123005 6 165 3.2 9.7 0.00 0.00 0.00 55 1007.5
20260508122505 6 161 1.6 9.7 0.00 0.00 0.00 57 1007.5
20260508122005 5 155 3.2 4.8 0.00 0.00 0.00 57 1007.5
20260508121505 5 155 3.2 4.8 0.00 0.00 0.00 57 1007.5
20260508121005 5 155 1.6 4.8 0.00 0.00 0.00 59 1007.4
20260508120505 5 155 1.6 4.8 0.00 0.00 0.00 59 1007.4
20260508120005 4 155 3.2 4.8 0.00 0.00 0.00 59 1007.4
20260508115505 4 155 1.6 4.8 0.00 0.00 0.00 59 1007.3
20260508115005 3 155 1.6 4.8 0.00 0.00 0.00 59 1007.4
20260508114505 3 155 1.6 4.8 0.00 0.00 0.00 61 1007.4
20260508114006 3 155 1.6 4.8 0.00 0.00 0.00 60 1007.4
20260508113505 3 155 1.6 4.8 0.00 0.00 0.00 61 1007.4
20260508113006 3 155 1.6 4.8 0.00 0.00 0.00 61 1007.5
20260508112505 3 155 1.6 3.2 0.00 0.00 0.00 62 1007.4
20260508112005 3 155 1.6 3.2 0.00 0.00 0.00 60 1007.4
20260508111505 3 155 1.6 3.2 0.00 0.00 0.00 61 1007.4
20260508111006 3 155 0.0 3.2 0.00 0.00 0.00 59 1007.4
20260508110505 3 155 0.0 3.2 0.00 0.00 0.00 59 1007.5
20260508105505 3 155 0.0 1.6 0.00 0.00 0.00 57 1007.5
20260508105005 3 155 0.0 3.2 0.00 0.00 0.00 57 1007.5
20260508104504 4 155 1.6 3.2 0.00 0.00 0.00 58 1007.5
20260508104005 4 155 0.0 3.2 0.00 0.00 0.00 58 1007.4
20260508103506 4 155 1.6 4.8 0.00 0.00 0.00 58 1007.5
20260508103005 4 155 1.6 3.2 0.00 0.00 0.00 58 1007.4
20260508102505 4 155 1.6 3.2 0.00 0.00 0.00 57 1007.5
20260508102005 5 155 1.6 3.2 0.00 0.00 0.00 58 1007.5
20260508101505 5 155 1.6 4.8 0.00 0.00 0.00 57 1007.5
20260508101005 4 155 1.6 4.8 0.00 0.00 0.00 56 1007.5
20260508100505 4 156 1.6 4.8 0.00 0.00 0.00 58 1007.6
20260508100005 4 150 1.6 4.8 0.00 0.00 0.00 58 1007.6
20260508095505 4 150 3.2 4.8 0.00 0.00 0.00 57 1007.7
20260508095005 4 150 1.6 4.8 0.00 0.00 0.00 58 1007.7
20260508094506 4 148 3.2 4.8 0.00 0.00 0.00 58 1007.7
20260508094005 3 148 1.6 4.8 0.00 0.00 0.00 58 1007.7
20260508093507 3 148 1.6 4.8 0.00 0.00 0.00 59 1007.7
20260508093007 3 148 1.6 4.8 0.00 0.00 0.00 60 1007.7
20260508092006 3 148 1.6 4.8 0.00 0.00 0.00 64 1007.7
20260508090507 3 148 0.0 1.6 0.00 0.00 0.00 64 1007.7
20260508090007 3 148 0.0 0.0 0.00 0.00 0.00 65 1007.8
20260508085006 3 148 0.0 1.6 0.00 0.00 0.00 64 1007.9
20260508084506 3 148 0.0 1.6 0.00 0.00 0.00 66 1007.9
20260508084006 3 148 0.0 1.6 0.00 0.00 0.00 67 1007.9
20260508083506 3 148 0.0 1.6 0.00 0.00 0.00 67 1007.9
20260508083009 3 148 0.0 0.0 0.00 0.00 0.00 65 1007.9
20260508082506 3 148 0.0 0.0 0.00 0.00 0.00 63 1007.9
20260508082006 3 148 0.0 0.0 0.00 0.00 0.00 63 1008.0
20260508081507 2 148 0.0 3.2 0.00 0.00 0.00 66 1008.1
20260508081007 2 146 0.0 3.2 0.00 0.00 0.00 67 1008.1
20260508080506 2 306 0.0 3.2 0.00 0.00 0.00 69 1008.2
20260508080006 2 306 0.0 0.0 0.00 0.00 0.00 69 1008.2